Location: Stockholm
(59.3333°N, 18.0500°E)
Time: 02:20:33
(UTC+02:00)

ISS - Pass Details

Date: 14 May 2021
Orbit: 417 x 422 km, 51.6° (Epoch: 16 June)

Event Time Altitude Azimuth Distance (km) Brightness Sun altitude
Rises 22:51:39 0° 210° (SSW) 2,361 -0.3 -8.5°
Reaches altitude 10° 22:54:41 10° 180° (S) 1,502 -1.5 -8.7°
Enters shadow 22:55:19 12° 170° (S) 1,406 -1.7 -8.7°
Exits shadow 22:57:19 11° 133° (SE) 1,439 -1.6 -8.8°
Drops below altitude 10° 22:57:44 10° 126° (SE) 1,506 -1.5 -8.8°
Sets 23:00:46 0° 97° (E) 2,375 -0.2 -9.0°
